This demonstration page uses our WeatherBlox Daily Observations layout. Learn more.

Left ArrowRight Arrow

39.08367, -84.50855

Hourly Observations for January 26, 2017

Temp ( °F °C ) Dew Point ( °F °C ) Humidity (%) Winds ( mph kmh ) Pressure ( in mb ) Visibility ( mi km ) Precip ( " mm )
12:53 am 00:53 Clear 41 5 32 0 70 70 W 5 7 29.68 1005 10 16 0.00 0.00
1:53 am 01:53 Mostly Cloudy 41 5 32 0 70 70 W 12 19 29.68 1005 10 16 0.00 0.00
2:53 am 02:53 Cloudy 41 5 31 -0.6 67 67 W 12 19 29.69 1005 10 16 0.00 0.00
3:53 am 03:53 Cloudy 40 4.4 30 -1.1 68 68 WSW 17 28 29.69 1006 10 16 0.00 0.00
4:53 am 04:53 Cloudy 39 3.9 27 -2.8 62 62 W 14 22 29.71 1006 10 16 0.00 0.00
5:53 am 05:53 Cloudy 39 3.9 28 -2.2 65 65 WSW 16 26 29.72 1006 10 16 0.00 0.00
6:53 am 06:53 Cloudy 38 3.3 29 -1.7 70 70 WSW 17 28 29.74 1007 10 16 0.00 0.00
7:14 am 07:14 Cloudy 37 3 28 -2 70 70 W 22 35 29.77 1008 10 16 0.00 0.00
7:53 am 07:53 Cloudy 38 3.3 30 -1.1 73 73 WSW 17 28 29.77 1008 10 16 0.00 0.00
8:53 am 08:53 Cloudy with Light Rain 37 2.8 32 0 82 82 WSW 12 19 29.81 1009 4 6 0.00 0.03
9:53 am 09:53 Cloudy 38 3.3 33 0.6 83 83 WSW 13 20 29.83 1010 10 16 0.00 0.03
10:10 am 10:10 Cloudy 39 4 34 1 81 81 WSW 14 22 29.85 1011 10 16 0.00 0.00
10:53 am 10:53 Cloudy with Light Rain 39 3.9 33 0.6 79 79 WSW 16 26 29.86 1011 9 14 0.00 0.03
11:15 am 11:15 Cloudy 40 4.4 34 1.1 79 79 WSW 17 28 29.91 1013 10 16 0.00 0.03
11:41 am 11:41 Cloudy 41 5 31 -0.6 67 67 W 18 30 29.91 1013 10 16 0.00 0.03
11:53 am 11:53 Cloudy 41 5 32 0 70 70 WSW 18 30 29.88 1012 10 16 0.00 0.03
12:14 pm 12:14 Cloudy 39 3.9 32 0 76 76 W 14 22 29.91 1013 10 16 0.00 0.03
12:36 pm 12:36 Cloudy 38 3.3 32 0 79 79 W 25 41 29.91 1013 8 13 0.00 0.03
12:46 pm 12:46 Cloudy with Light Rain 37 3 34 1 87 87 W 12 19 29.91 1013 6 10 0.00 0.00
12:53 pm 12:53 Cloudy 39 3.9 33 0.6 79 79 W 17 28 29.89 1012 10 16 0.00 0.03
1:23 pm 13:23 Cloudy 37 2.8 32 0 82 82 WSW 15 24 29.91 1013 10 16 0.00 0.00
1:38 pm 13:38 Cloudy with Light Rain 37 3 32 0 81 81 WSW 14 22 29.91 1013 10 16 0.00 0.00
1:51 pm 13:51 Cloudy with Light Rain 37 3 32 0 81 81 WSW 15 24 29.94 1014 7 11 0.00 0.03
1:53 pm 13:53 Cloudy with Light Rain 36 2.2 32 0 86 86 WSW 15 24 29.90 1013 6 10 0.00 0.03
2:53 pm 14:53 Cloudy with Light Rain 36 2.2 32 0 86 86 W 14 22 29.93 1013 7 11 0.01 0.25
3:53 pm 15:53 Cloudy 37 2.8 30 -1.1 76 76 W 16 26 29.95 1014 10 16 0.00 0.03
4:53 pm 16:53 Cloudy 35 1.7 29 -1.7 78 78 W 18 30 29.98 1015 10 16 0.00 0.03
5:53 pm 17:53 Cloudy with Light Snow 34 1.1 29 -1.7 82 82 W 14 22 29.99 1016 9 14 0.00 0.03
6:31 pm 18:31 Cloudy with Light Snow 34 1.1 29 -1.7 82 82 WSW 12 19 30.00 1016 9 14 0.00 0.03
6:53 pm 18:53 Cloudy 34 1.1 28 -2.2 79 79 WSW 12 19 30.01 1016 9 14 0.00 0.03
7:53 pm 19:53 Cloudy 34 1.1 28 -2.2 79 79 WSW 12 19 30.02 1017 10 16 0.00 0.00
8:53 pm 20:53 Cloudy 33 0.6 29 -1.7 85 85 W 14 22 30.03 1017 10 16 0.00 0.03
9:53 pm 21:53 Cloudy with Light Wintry Mix 32 0 29 -1.7 88 88 W 13 20 30.04 1017 8 13 0.00 0.03
10:48 pm 22:48 Cloudy 32 0 27 -3 80 80 SW 13 20 30.06 1018 10 16 0.00 0.00
10:53 pm 22:53 Cloudy 32 0 26 -3.3 79 79 WSW 12 19 30.04 1017 10 16 0.00 0.03
11:53 pm 23:53 Cloudy 32 0 26 -3.3 79 79 WSW 10 17 30.04 1017 10 16 0.00 0.00

Powered by AerisWeather